Probability
29 26 26 26 29 29 29 32 32 29 29 29 26 26 23 29 35 35 35 35 35 32 32 32 32 35 29 19 16 13 10 6 19 19 10 10 16 10 6 3 6 6 6
42 39 29 32 32 39 39 35 35 26 23 23 23 19 26 26 32 35 39 39 35 35 35 35 35 29 23 23 23 26 19 16 23 23 16 16 6 6 6 6 3 3 6
39 45 39 35 39 39 42 42 29 26 26 26 23 26 29 35 32 35 32 32 35 35 35 35 35 32 23 19 23 19 13 13 16 19 13 10 6 3 6 3 3 6 0
42 42 42 32 39 35 39 32 26 29 29 32 29 32 32 32 32 32 32 35 32 29 32 29 26 19 19 23 23 19 16 16 16 10 13 6 3 3 3 6 3 3 0
39 45 45 39 39 35 32 19 23 23 26 29 23 26 26 32 39 35 32 29 35 29 29 26 26 19 16 16 16 23 16 13 13 13 10 10 6 6 6 6 3 0 0
42 42 32 35 35 35 26 19 19 26 23 23 23 26 26 26 23 19 19 32 29 29 29 26 23 19 13 10 10 6 6 10 13 10 6 10 13 10 6 3 3 0 3
26 29 32 29 32 32 32 26 26 32 29 23 23 23 23 19 13 10 13 16 26 26 26 19 23 19 10 16 6 0 0 0 0 10 10 10 10 10 10 6 3 6 3
23 26 26 19 23 26 26 29 39 32 29 26 26 23 23 19 10 6 6 13 19 23 23 19 16 23 10 6 6 6 6 3 3 0 6 10 10 10 6 6 6 0 0
13 19 19 19 16 19 23 23 32 35 23 23 26 23 23 19 10 6 3 10 10 19 19 16 19 19 6 3 6 10 10 10 3 0 0 3 0 0 0 3 0 0 0
16 16 16 16 16 16 19 23 23 26 26 19 23 23 23 23 13 3 3 10 13 16 16 13 6 10 3 3 3 6 10 6 6 0 0 0 0 0 0 0 0 0 0
6 13 10 13 13 16 13 6 16 23 19 19 19 19 19 16 13 3 3 10 16 16 16 10 6 0 0 0 0 3 3 3 3 3 0 0 0 0 0 0 0 0 0
10 13 13 13 16 16 10 10 13 19 19 19 23 19 16 10 6 0 3 6 6 10 10 10 6 0 0 0 0 0 0 0 3 0 0 0 0 0 0 0 0 0 0
13 13 13 10 10 13 13 13 10 10 16 19 23 19 13 6 10 0 0 0 0 6 6 3 0 0 0 0 0 0 0 0 3 3 3 0 0 0 0 0 0 0 0
13 10 10 10 10 10 13 16 10 13 16 16 16 16 10 6 6 10 0 0 0 0 3 0 0 0 0 0 0 0 0 0 3 3 3 0 0 0 0 0 0 0 0
10 10 10 10 10 10 6 6 10 10 6 13 13 10 6 6 3 3 0 0 3 3 3 0 0 0 0 0 0 0 0 0 3 3 3 0 0 0 0 0 0 0 3
10 10 10 6 6 3 3 0 0 3 0 0 6 6 6 3 3 3 0 0 0 0 0 0 0 0 0 0 0 0 3 3 3 3 3 3 0 0 0 0 0 0 0
10 6 6 6 3 3 3 3 0 0 0 0 0 0 3 0 0 0 0 0 0 0 0 0 0 0 0 0 0 0 0 3 3 3 3 3 0 0 0 0 0 0 0
6 6 3 3 3 3 3 3 3 0 0 0 0 0 0 0 0 0 0 0 0 0 0 0 0 0 0 0 0 0 0 0 3 3 3 3 3 0 0 0 0 0 0
3 0 0 3 0 0 0 0 0 3 3 0 0 0 0 0 0 0 0 0 0 0 0 0 0 0 0 0 0 0 0 0 0 0 0 3 0 0 0 0 0 0 0
0 0 0 0 0 0 0 0 0 0 0 0 0 0 0 0 0 0 0 0 0 0 0 0 0 0 0 0 0 0 0 0 0 0 0 0 0 0 0 0 0 0 0
0 0 0 0 0 0 0 0 0 0 0 0 0 0 0 0 0 0 0 0 0 0 0 0 0 0 0 0 0 0 0 0 0 0 0 0 0 0 0 0 0 0 0
0 0 0 0 0 0 0 0 0 0 0 0 0 0 0 0 0 0 0 0 0 0 0 0 0 0 0 0 0 0 0 0 0 0 0 0 0 0 0 0 0 0 0
0 0 0 0 0 0 0 0 0 0 0 0 0 0 0 0 0 0 0 0 0 0 0 0 0 0 0 0 0 0 0 0 0 0 0 0 0 0 0 0 0 0 0
0 0 0 0 0 0 0 0 0 0 0 3 3 3 3 0 0 0 0 0 0 0 0 0 0 0 0 0 0 0 0 0 0 0 0 0 0 0 0 0 0 0 0
0 0 0 0 0 0 0 0 0 0 0 0 3 3 3 0 0 0 0 0 0 0 0 0 0 0 0 0 0 0 0 0 0 0 0 0 0 0 0 0 0 0 0
0 0 0 0 0 0 0 3 0 0 0 0 0 0 0 0 0 0 0 0 0 0 0 0 0 0 0 0 0 0 0 0 0 0 0 0 0 0 0 0 0 0 0
Height
5883 5883 5883 5884 5884 5884 5884 5884 5884 5883 5883 5883 5883 5882 5881 5881 5880 5880 5879 5878 5877 5876 5874 5874 5873 5872 5871 5870 5869 5869 5868 5868 5867 5867 5865 5864 5863 5863 5862 5861 5860 5859 5857
5879 5879 5879 5879 5879 5879 5879 5878 5878 5878 5877 5877 5877 5876 5876 5875 5874 5874 5873 5873 5872 5871 5870 5869 5868 5867 5866 5865 5864 5863 5863 5862 5862 5861 5860 5859 5858 5857 5856 5855 5853 5852 5851
5874 5873 5873 5873 5873 5873 5873 5873 5872 5872 5871 5871 5870 5870 5869 5869 5868 5867 5867 5867 5866 5865 5865 5864 5863 5862 5861 5859 5859 5858 5857 5856 5855 5855 5854 5853 5852 5851 5850 5849 5847 5846 5844
5867 5867 5867 5867 5867 5867 5866 5866 5866 5865 5864 5864 5864 5863 5862 5862 5861 5861 5860 5860 5859 5859 5858 5858 5857 5856 5855 5854 5853 5852 5851 5850 5849 5848 5847 5846 5845 5844 5842 5841 5840 5839 5838
5861 5861 5861 5860 5860 5859 5859 5858 5858 5858 5857 5857 5857 5856 5855 5855 5854 5854 5854 5853 5853 5852 5852 5851 5850 5849 5848 5847 5846 5845 5844 5843 5842 5841 5840 5839 5838 5836 5835 5834 5832 5831 5830
5853 5853 5853 5853 5852 5852 5852 5851 5850 5850 5849 5849 5849 5848 5848 5847 5847 5846 5846 5846 5845 5845 5844 5843 5843 5842 5840 5840 5839 5838 5837 5836 5835 5834 5832 5831 5829 5828 5827 5825 5824 5823 5822
5845 5845 5844 5844 5843 5844 5843 5842 5841 5841 5841 5840 5840 5840 5840 5839 5839 5839 5838 5838 5837 5837 5836 5836 5835 5834 5833 5832 5831 5830 5828 5827 5827 5826 5824 5823 5821 5820 5818 5817 5815 5814 5813
5836 5835 5835 5834 5834 5834 5833 5833 5832 5832 5831 5831 5831 5831 5831 5831 5831 5830 5830 5830 5829 5828 5828 5828 5827 5826 5825 5824 5823 5821 5820 5819 5818 5817 5815 5814 5812 5811 5809 5808 5806 5805 5804
5826 5826 5826 5825 5825 5824 5824 5823 5823 5822 5820 5820 5821 5821 5822 5822 5822 5822 5821 5821 5821 5820 5820 5819 5818 5817 5816 5815 5814 5812 5811 5810 5808 5807 5806 5804 5803 5801 5800 5798 5797 5796 5794
5816 5816 5816 5815 5814 5814 5814 5813 5812 5812 5811 5811 5811 5812 5812 5813 5813 5812 5812 5812 5811 5811 5810 5809 5809 5808 5807 5806 5805 5803 5802 5800 5798 5797 5796 5794 5793 5791 5789 5788 5787 5785 5784
5805 5805 5805 5805 5804 5804 5803 5802 5801 5802 5802 5801 5802 5802 5802 5803 5803 5802 5802 5801 5801 5801 5800 5799 5799 5798 5797 5796 5794 5793 5792 5790 5789 5787 5786 5784 5783 5781 5779 5778 5776 5775 5773
5794 5794 5794 5794 5794 5793 5793 5792 5792 5791 5791 5791 5792 5792 5792 5792 5792 5791 5791 5790 5790 5790 5789 5789 5788 5787 5786 5785 5784 5783 5782 5780 5779 5778 5776 5775 5773 5771 5769 5767 5766 5764 5762
5783 5782 5782 5783 5783 5782 5782 5781 5781 5780 5780 5781 5781 5782 5782 5782 5781 5780 5780 5779 5779 5779 5778 5778 5777 5776 5776 5775 5774 5773 5771 5770 5768 5767 5766 5764 5763 5761 5759 5757 5755 5753 5751
5771 5771 5770 5770 5771 5771 5770 5770 5770 5770 5769 5770 5771 5771 5771 5770 5770 5770 5769 5768 5768 5767 5767 5767 5766 5765 5765 5764 5763 5762 5761 5759 5758 5757 5755 5754 5752 5750 5748 5746 5744 5742 5740
5759 5759 5758 5758 5758 5759 5759 5758 5759 5759 5759 5759 5759 5759 5759 5759 5759 5758 5757 5757 5757 5756 5755 5755 5755 5754 5754 5753 5752 5751 5750 5748 5747 5746 5745 5743 5741 5739 5737 5736 5734 5732 5730
5746 5747 5747 5747 5747 5747 5747 5747 5746 5747 5747 5747 5747 5747 5747 5747 5747 5747 5746 5746 5745 5745 5744 5744 5744 5743 5743 5742 5741 5740 5739 5737 5736 5735 5734 5732 5731 5729 5727 5726 5724 5722 5720
5734 5734 5734 5735 5735 5734 5734 5734 5735 5735 5735 5735 5735 5735 5735 5735 5735 5735 5735 5734 5734 5734 5733 5733 5733 5732 5732 5731 5730 5729 5728 5726 5725 5724 5723 5722 5720 5719 5717 5715 5713 5711 5710
5722 5722 5722 5722 5722 5722 5722 5722 5723 5723 5724 5724 5724 5723 5724 5724 5724 5724 5724 5723 5723 5723 5722 5722 5722 5721 5720 5720 5719 5718 5717 5716 5715 5714 5712 5711 5710 5708 5707 5705 5704 5702 5700
5709 5709 5709 5710 5710 5710 5711 5711 5712 5712 5712 5713 5713 5713 5713 5713 5713 5713 5712 5712 5712 5712 5712 5711 5711 5710 5710 5709 5709 5707 5706 5705 5704 5703 5702 5701 5699 5698 5696 5695 5694 5692 5690
5698 5697 5698 5699 5699 5700 5700 5701 5701 5701 5701 5702 5702 5702 5702 5702 5702 5702 5702 5701 5701 5701 5701 5700 5700 5699 5699 5698 5697 5696 5696 5695 5694 5693 5691 5690 5688 5687 5686 5685 5683 5682 5680
5687 5687 5688 5689 5689 5690 5690 5690 5691 5691 5691 5691 5692 5692 5692 5691 5691 5691 5690 5690 5690 5690 5689 5689 5689 5688 5688 5687 5687 5686 5685 5684 5683 5682 5680 5679 5678 5676 5675 5674 5672 5671 5670
5677 5677 5678 5678 5679 5679 5679 5679 5680 5681 5681 5681 5681 5681 5681 5680 5680 5680 5679 5679 5679 5679 5678 5678 5677 5677 5676 5676 5676 5675 5674 5673 5673 5671 5670 5668 5667 5666 5664 5663 5662 5661 5659
5667 5667 5668 5668 5669 5669 5669 5670 5670 5671 5672 5672 5671 5671 5670 5670 5670 5669 5668 5669 5669 5668 5668 5667 5666 5666 5665 5664 5664 5664 5663 5663 5662 5661 5659 5658 5657 5656 5654 5653 5652 5651 5650
5657 5658 5659 5659 5660 5660 5660 5661 5661 5662 5662 5662 5662 5661 5660 5660 5659 5659 5658 5658 5658 5657 5657 5656 5655 5655 5654 5653 5653 5652 5652 5651 5650 5649 5648 5647 5646 5645 5644 5643 5642 5641 5640
5649 5649 5650 5650 5651 5651 5651 5652 5652 5652 5652 5652 5652 5651 5651 5650 5650 5649 5648 5648 5647 5646 5646 5645 5644 5643 5642 5642 5641 5641 5641 5640 5639 5638 5637 5636 5635 5635 5634 5633 5632 5632 5631
5640 5640 5641 5641 5642 5642 5642 5642 5643 5643 5642 5642 5642 5641 5641 5640 5639 5639 5638 5637 5636 5635 5635 5634 5633 5632 5631 5631 5630 5630 5629 5629 5628 5627 5626 5625 5625 5624 5624 5623 5622 5622 5621
Wind_Speed
16 15 16 16 16 16 17 18 18 19 19 20 20 20 20 19 19 19 19 18 18 18 18 18 18 19 19 19 20 21 21 21 21 20 20 20 20 21 21 22 23 23 23
18 18 18 19 19 19 20 20 20 20 21 22 22 22 22 22 22 21 21 20 20 20 20 20 20 20 21 21 20 20 20 21 21 21 21 22 22 23 23 24 25 25 24
20 20 21 22 23 23 23 23 23 24 23 23 23 24 24 24 24 23 23 23 22 22 22 22 22 22 22 21 21 21 21 21 21 22 22 22 23 24 25 25 26 26 26
23 23 23 24 24 25 26 26 25 26 25 25 25 25 25 25 25 26 25 25 24 24 24 24 24 24 24 23 24 24 24 24 24 24 23 24 25 25 26 26 27 27 27
26 26 26 26 26 27 27 27 28 27 27 26 26 26 27 27 27 27 27 27 26 25 25 25 25 25 25 25 26 26 27 27 26 26 26 26 27 27 28 28 27 27 28
29 29 29 29 29 29 29 30 30 29 29 29 28 28 28 28 27 27 27 28 28 27 27 26 26 26 27 27 27 28 28 28 28 29 29 28 28 28 29 29 29 29 29
31 31 32 32 31 31 32 32 32 32 32 31 31 31 30 29 29 29 29 29 29 29 29 28 27 28 28 28 29 30 30 30 30 30 30 30 30 30 30 30 31 30 30
33 33 34 33 33 34 34 33 34 34 34 33 32 32 31 31 31 31 31 31 31 30 30 30 30 30 30 31 31 31 32 32 31 31 31 32 32 32 32 33 32 32 32
34 34 35 35 36 36 35 35 35 35 34 34 33 32 32 32 33 33 33 33 32 31 32 32 32 32 32 33 33 32 32 33 33 32 32 32 33 34 34 34 34 33 33
35 35 36 37 37 37 37 37 36 35 34 34 33 32 32 33 34 35 35 35 35 35 35 35 35 34 34 34 34 34 34 34 33 34 34 34 34 35 35 35 34 34 34
36 37 37 37 38 38 37 38 37 36 35 34 33 32 33 33 34 35 36 36 37 37 36 36 35 35 35 35 35 35 35 35 35 35 35 35 35 35 35 35 35 34 34
39 38 38 38 39 38 38 37 37 36 35 36 34 33 33 34 35 35 36 37 37 38 38 37 36 36 36 36 37 37 37 36 36 36 35 35 35 35 35 35 35 35 35
41 40 40 39 38 37 37 37 36 35 35 34 34 34 34 35 35 35 36 37 37 37 37 37 37 37 38 38 38 38 37 36 36 35 35 35 35 35 35 35 36 35 35
40 39 38 37 37 37 37 37 37 37 35 35 35 34 35 35 35 36 36 37 38 38 38 38 38 38 38 38 37 36 36 35 35 35 35 35 35 35 35 35 36 36 35
39 37 37 37 36 37 37 37 38 37 36 35 34 34 35 35 35 35 36 36 37 37 37 38 37 37 37 37 36 36 36 36 36 35 34 34 35 35 35 35 35 35 35
39 38 38 37 37 37 37 37 38 37 35 35 35 35 35 35 35 36 36 36 35 35 36 36 36 36 35 35 35 35 36 36 35 35 34 34 34 34 34 34 34 34 33
38 38 38 38 38 38 38 38 36 36 36 36 35 35 35 35 35 35 35 36 36 36 35 35 35 35 35 34 35 35 36 36 35 34 33 33 33 34 34 34 34 33 33
37 36 37 37 37 35 35 35 35 35 34 35 34 34 34 34 34 34 35 35 34 34 35 35 36 36 35 35 35 35 35 34 35 34 33 33 33 34 34 34 34 33 33
36 36 35 35 35 33 34 33 33 33 33 34 35 35 34 34 34 34 34 35 35 35 34 34 35 35 35 35 35 34 34 33 33 34 34 34 34 34 34 33 33 33 33
35 35 34 33 33 33 33 32 32 32 32 32 32 32 32 33 33 34 35 34 34 35 35 34 34 34 35 34 33 33 33 33 33 34 34 34 34 34 34 33 32 32 32
34 33 33 32 32 33 33 32 31 31 31 31 31 31 32 33 34 34 35 34 34 34 34 35 34 33 33 33 32 32 33 33 33 34 34 34 33 33 33 32 32 31 31
33 32 31 31 32 33 32 31 30 30 30 30 30 32 33 33 33 34 34 33 32 33 33 34 34 34 34 33 32 33 33 33 33 33 33 33 33 32 32 31 31 31 31
31 31 30 30 30 30 30 29 29 29 30 30 30 31 30 31 32 33 32 32 32 32 32 32 32 32 33 33 33 33 34 34 33 32 32 33 33 32 32 31 31 31 30
29 29 28 28 28 27 27 26 27 28 29 30 30 30 29 30 31 31 32 32 32 32 32 32 32 32 33 33 33 33 33 33 32 33 33 33 32 32 31 31 30 30 29
28 27 28 28 28 27 28 27 27 28 28 29 29 30 30 30 31 31 31 32 32 33 33 32 32 32 33 33 32 33 33 32 32 32 32 32 32 31 31 30 30 29 29
28 28 28 29 28 27 27 28 28 29 30 30 30 30 30 31 30 30 30 31 32 32 33 33 32 32 32 32 31 31 31 31 31 31 31 31 31 31 31 30 29 28 27
Wind_Direction
261 261 263 266 266 266 267 268 270 268 269 270 272 273 274 275 278 281 282 284 286 287 286 287 287 287 288 287 283 281 281 281 281 282 281 281 284 286 286 286 288 289 290
265 264 267 270 270 269 270 270 271 271 271 269 270 272 273 275 276 277 279 280 282 284 286 287 288 288 288 288 286 286 285 285 283 281 278 279 282 285 287 290 289 287 288
271 268 269 271 271 271 272 271 272 273 273 271 270 272 272 274 276 276 277 278 280 282 283 285 287 287 288 285 284 286 287 287 285 283 280 281 283 284 287 289 290 288 288
271 272 272 272 272 273 272 271 273 276 274 272 272 274 274 274 274 274 275 276 277 279 281 283 285 285 285 283 284 284 284 284 284 284 284 283 285 286 286 286 287 287 288
270 270 270 270 272 274 276 274 275 275 275 274 274 274 274 274 274 274 274 274 275 276 279 281 284 284 282 281 282 283 282 283 283 284 283 283 284 285 285 285 286 286 287
271 270 271 270 271 274 277 278 278 277 277 276 274 273 273 273 273 275 276 275 275 274 276 279 282 283 280 280 282 282 282 282 282 283 283 282 283 284 285 285 285 284 286
271 271 272 273 273 275 276 276 277 278 278 277 274 272 271 271 272 273 274 275 275 274 275 278 281 283 282 280 281 281 281 282 281 283 283 282 282 283 284 285 285 283 283
271 271 271 274 274 275 277 277 278 277 277 275 274 270 269 270 271 271 272 272 273 274 276 277 279 280 282 282 282 281 280 281 281 283 283 283 283 283 284 284 284 283 282
270 272 274 273 274 275 276 276 276 277 276 273 271 268 268 269 271 271 271 271 271 272 275 276 277 278 280 282 283 282 281 281 282 284 285 284 283 283 284 285 285 285 284
271 271 273 274 275 276 276 277 276 276 274 271 269 267 269 270 271 271 271 270 271 272 274 275 275 277 279 280 282 282 282 282 282 283 283 283 283 284 285 285 285 285 285
274 274 273 275 277 278 277 277 275 275 273 271 270 270 271 272 272 272 271 270 272 273 273 273 274 276 278 279 280 281 282 282 282 282 283 283 283 284 285 286 286 285 285
274 274 275 277 277 277 277 277 275 274 274 271 268 269 271 273 273 272 271 271 272 272 272 273 274 275 277 277 279 279 281 280 281 282 282 282 283 284 285 285 285 285 285
272 273 274 274 275 276 276 275 275 274 274 272 270 270 271 273 274 273 271 271 273 272 273 273 274 275 276 277 278 279 280 281 281 281 283 283 283 284 284 284 285 286 286
272 272 272 271 273 275 276 275 275 275 273 272 271 272 273 274 274 274 273 273 272 272 271 272 274 275 277 278 278 279 280 281 281 282 282 283 282 283 284 284 285 286 286
271 272 272 272 271 273 274 274 274 274 274 272 270 272 274 274 273 274 274 273 273 272 272 273 273 275 278 278 277 279 280 281 283 283 283 283 283 284 283 284 285 285 286
270 269 269 270 270 272 272 272 272 270 271 271 271 272 273 274 274 273 273 273 273 273 274 274 273 274 275 275 276 278 279 282 282 283 283 284 284 284 285 285 285 285 286
269 269 268 269 270 271 271 270 268 269 269 270 270 270 271 271 272 273 275 274 272 272 273 273 272 271 273 275 276 277 279 280 280 281 282 283 284 284 284 285 286 286 285
271 270 269 268 268 269 270 268 266 267 268 270 270 271 270 270 272 273 273 273 273 273 273 270 270 271 273 275 276 277 277 278 279 281 281 282 283 284 284 284 285 286 286
268 268 268 269 268 267 266 265 266 267 268 269 270 272 271 271 273 273 274 273 272 272 272 272 272 273 275 277 277 277 277 278 279 280 282 282 282 283 284 283 284 285 285
269 268 268 269 267 266 265 265 267 268 269 270 271 272 272 273 273 272 273 273 272 272 272 272 273 274 276 276 276 276 276 278 279 281 282 283 282 283 284 283 283 284 285
268 268 266 266 265 266 264 264 266 268 269 270 272 273 275 276 275 273 273 273 273 273 273 273 274 275 275 275 275 275 277 278 280 281 281 281 282 283 283 283 283 283 285
267 267 265 265 265 265 265 264 264 266 267 269 273 274 274 275 275 274 273 273 274 274 274 274 274 274 274 274 274 275 277 278 279 280 281 282 282 282 283 283 282 282 284
268 267 264 264 265 265 264 264 265 266 267 270 273 275 274 274 275 273 272 272 274 275 276 276 275 275 275 275 274 276 277 278 279 279 280 281 281 280 281 282 281 281 283
266 264 266 266 266 265 264 264 266 268 269 270 270 271 273 274 275 274 273 272 273 274 274 274 274 274 275 275 274 275 277 278 278 277 277 278 279 280 281 281 280 280 282
264 265 268 271 269 266 266 267 267 269 270 271 271 273 274 275 275 275 275 274 274 274 274 275 275 275 276 275 274 274 276 277 278 278 277 277 278 279 280 280 280 280 280
264 264 267 270 269 268 268 268 269 271 272 272 273 274 275 276 276 276 276 276 278 278 277 276 275 276 276 275 275 274 275 277 278 277 278 278 277 276 277 278 279 279 279